CAPE
0 0 0 0 0 0 0 0 0 0 0 0 0 0 0 0 0 0 0 0 0 0 0 0 0 0 0 0 0 0 0 0 0 0 0 0 0 0 0 0 0 0 0
0 0 0 0 0 0 0 0 0 0 0 0 0 0 0 0 0 0 0 0 0 0 0 0 0 0 0 0 0 0 0 0 0 0 0 0 0 0 0 0 0 0 0
0 0 0 0 0 0 0 0 0 0 0 0 0 0 0 0 0 0 0 0 0 0 0 0 0 0 0 0 0 0 0 0 0 0 0 0 0 0 0 0 0 0 0
0 0 0 0 0 0 0 0 0 0 0 0 0 0 0 0 0 0 0 0 0 0 0 0 0 0 0 0 0 0 0 0 0 0 0 0 0 0 0 0 0 0 0
0 0 0 0 0 0 0 0 0 0 0 0 0 0 0 0 0 0 0 0 0 0 0 0 0 0 0 0 0 0 0 0 0 0 0 0 0 0 0 0 0 0 0
0 0 0 0 0 0 0 0 0 0 0 0 0 0 0 0 0 0 0 0 0 0 0 0 0 0 0 0 0 0 0 0 0 0 0 0 0 0 0 0 0 0 0
0 0 0 0 0 0 0 0 0 0 0 0 0 0 0 0 0 0 0 0 0 0 0 0 0 0 0 0 0 0 0 0 0 0 0 0 0 0 0 0 0 0 0
0 0 0 0 0 0 0 0 0 0 0 0 0 0 0 0 0 0 0 0 0 0 0 0 0 0 0 0 0 0 0 0 0 0 0 0 0 0 0 0 0 0 0
0 0 0 0 0 0 0 0 0 0 0 0 0 0 0 0 0 0 0 0 0 0 0 0 0 0 0 0 0 0 0 0 0 0 0 0 0 0 0 0 0 0 0
0 0 0 0 0 0 0 0 0 0 0 0 0 0 0 0 0 0 0 0 0 0 0 0 0 0 0 0 0 0 0 0 0 0 0 0 0 0 0 0 0 0 0
0 0 0 0 0 0 0 0 0 0 0 0 0 0 0 0 0 0 0 0 0 0 0 0 0 0 0 0 0 0 0 0 0 0 0 0 0 0 0 0 0 0 0
0 0 0 0 0 0 0 0 0 0 0 0 0 0 0 0 0 0 0 0 0 0 0 0 0 0 0 0 0 0 0 0 0 0 0 0 0 0 0 0 0 0 0
0 0 0 0 0 0 0 0 0 0 0 0 0 0 0 0 0 0 0 0 0 0 0 0 0 0 0 0 0 0 0 0 0 0 0 0 0 0 0 0 0 0 0
0 0 0 0 0 0 0 0 0 0 0 0 0 0 0 0 0 0 0 0 0 0 0 0 0 0 0 0 0 0 0 0 0 0 0 0 0 0 0 0 0 1 0
0 0 0 0 0 0 0 0 0 0 0 0 0 0 0 0 0 0 0 0 0 0 0 0 0 0 0 0 0 0 0 0 0 0 0 0 0 0 3 5 2 3 0
0 0 0 0 0 0 0 0 0 0 0 0 0 0 0 0 0 0 0 0 0 0 0 0 0 0 0 0 0 0 0 0 0 0 0 0 0 0 10 10 14 16 10
0 0 0 0 0 0 0 0 0 0 0 0 0 0 0 0 0 0 0 0 0 0 0 0 0 0 0 0 0 0 0 0 0 0 0 0 0 1 0 4 19 2 4
0 0 0 0 0 0 0 0 0 0 0 0 0 0 0 0 0 0 0 0 0 0 0 0 0 0 0 0 0 0 0 0 0 0 0 0 0 0 11 2 8 6 0
0 0 0 0 0 0 0 0 0 0 0 0 0 0 0 0 0 0 0 0 0 0 0 0 0 0 0 0 0 0 0 0 0 0 0 1 2 5 11 42 0 0 0
0 0 0 0 0 0 0 0 0 0 0 0 0 0 0 0 0 0 0 0 0 0 0 0 0 0 0 0 0 0 0 0 0 0 0 2 5 10 43 3 0 0 0
0 0 0 0 0 0 0 0 0 0 0 0 0 0 0 0 0 0 0 0 0 0 0 0 0 0 0 0 0 0 2 0 1 0 0 0 10 20 6 3 0 0 6
0 0 0 0 0 0 0 0 0 0 0 0 0 0 0 0 0 0 0 0 0 0 0 0 0 0 0 0 0 1 9 13 1 0 0 2 13 2 0 0 3 5 3
0 0 0 0 0 0 0 0 0 0 0 0 0 0 0 0 0 0 0 0 0 0 0 0 0 0 0 0 0 1 9 8 7 4 15 5 0 0 0 0 0 0 0
0 0 0 0 0 0 0 0 0 0 0 0 0 0 0 0 0 0 0 0 0 0 0 0 0 0 0 0 0 0 0 3 2 8 0 0 0 0 0 0 0 0 0
0 0 0 0 0 0 0 0 0 0 0 0 0 0 0 0 0 0 0 0 0 0 0 0 0 0 0 0 2 2 3 6 2 1 0 0 0 0 0 0 0 0 0
0 0 0 0 0 0 0 0 0 0 0 0 0 0 0 0 0 0 0 0 0 0 0 0 0 0 0 0 1 6 9 5 2 0 0 0 0 0 0 0 0 0 0
CIN
0 0 0 0 0 0 0 0 0 0 0 0 0 0 0 0 0 0 0 0 0 0 0 0 0 0 0 0 0 0 0 0 0 0 0 0 0 0 0 0 0 0 0
0 0 0 0 0 0 0 0 0 0 0 0 0 0 0 0 0 0 0 0 0 0 0 0 0 0 0 0 0 0 0 0 0 0 0 0 0 0 0 0 0 0 0
0 0 0 0 0 0 0 0 0 0 0 0 0 0 0 0 0 0 0 0 0 0 0 0 0 0 0 0 0 0 0 0 0 0 0 0 0 0 0 0 0 0 0
0 0 0 0 0 0 0 0 0 0 0 0 0 0 0 0 0 0 0 0 0 0 0 0 0 0 0 0 0 0 0 0 0 0 0 0 0 0 0 0 0 0 0
0 0 0 0 0 0 0 0 0 0 0 0 0 0 0 0 0 0 0 0 0 0 0 0 0 0 0 0 0 0 0 0 0 0 0 0 0 0 0 0 0 0 0
0 0 0 0 0 0 0 0 0 0 0 0 0 0 0 0 0 0 0 0 0 0 0 0 0 0 0 0 0 0 0 0 0 0 0 0 0 0 0 0 0 0 0
0 0 0 0 0 0 0 0 0 0 0 0 0 0 0 0 0 0 0 0 0 0 0 0 0 0 0 0 0 0 0 0 0 0 0 0 0 0 0 0 0 0 0
0 0 0 0 0 0 0 0 0 0 0 0 0 0 0 0 0 0 0 0 0 0 0 0 0 0 0 0 0 0 0 0 0 0 0 0 0 0 0 0 0 0 0
0 0 0 0 0 0 0 0 0 0 0 0 0 0 0 0 0 0 0 0 0 0 0 0 0 0 0 0 0 0 0 0 0 0 0 0 0 0 0 0 0 0 0
0 0 0 0 0 0 0 0 0 0 0 0 0 0 0 0 0 0 0 0 0 0 0 0 0 0 0 0 0 0 0 0 0 0 0 0 0 0 0 0 0 0 0
0 0 0 0 0 0 0 0 0 0 0 0 0 0 0 0 0 0 0 0 0 0 0 0 0 0 0 0 0 0 0 0 0 0 0 0 0 0 0 0 0 0 0
0 0 0 0 0 0 0 0 0 0 0 0 0 0 0 0 0 0 0 0 0 0 0 0 0 0 0 0 0 0 0 0 0 0 0 0 0 0 0 0 0 0 0
0 0 0 0 0 0 0 0 0 0 0 0 0 0 0 0 0 0 0 0 0 0 0 0 0 0 0 0 0 0 0 0 0 0 0 0 0 0 0 0 0 0 -4
0 0 0 0 0 0 0 0 0 0 0 0 0 0 0 0 0 0 0 0 0 0 0 0 0 0 0 0 0 0 0 0 0 0 0 0 0 0 0 0 0 -5 0
0 0 0 0 0 0 0 0 0 0 0 0 0 0 0 0 0 0 0 0 0 0 0 0 0 0 0 0 0 0 0 0 0 0 0 0 0 0 -2 -3 -5 -3 -2
0 0 0 0 0 0 0 0 0 0 0 0 0 0 0 0 0 0 0 0 0 0 0 0 0 0 0 0 0 0 0 0 0 0 0 0 0 0 -1 -2 -2 -3 -3
0 0 0 0 0 0 0 0 0 0 0 0 0 0 0 0 0 0 0 0 0 0 0 0 0 0 0 0 0 0 0 0 0 0 0 0 0 -3 0 -4 -2 -2 -4
0 0 0 0 0 0 0 0 0 0 0 0 0 0 0 0 0 0 0 0 0 0 0 0 0 0 0 0 0 0 0 0 0 0 0 0 0 0 -4 -7 -8 -10 0
0 0 0 0 0 0 0 0 0 0 0 0 0 0 0 0 0 0 0 0 0 0 0 0 0 0 0 0 0 0 0 0 0 0 0 -3 -3 -2 -6 -2 -1 0 0
0 0 0 0 0 0 0 0 0 0 0 0 0 0 0 0 0 0 0 0 0 0 0 0 0 0 0 0 0 0 0 0 0 0 0 -1 -2 -4 -2 -6 -1 0 0
0 0 0 0 0 0 0 0 0 0 0 0 0 0 0 0 0 0 0 0 0 0 0 0 0 0 0 0 0 -1 -4 -2 -7 -1 0 0 -1 -3 -5 -4 0 -1 -6
0 0 0 0 0 0 0 0 0 0 0 0 0 0 0 0 0 0 0 0 0 0 0 0 0 0 0 0 0 -2 -2 -3 -5 -8 0 -3 -2 -3 -1 -1 -3 -3 -4
0 0 0 0 0 0 0 0 0 0 0 0 0 0 0 0 0 0 0 0 0 0 0 0 0 0 0 0 0 -2 -2 -2 -4 -9 -2 -1 -1 0 0 0 -1 -1 0
0 0 0 0 0 0 0 0 0 0 0 0 0 0 0 0 0 0 0 0 0 0 0 0 0 0 0 0 0 0 0 -4 -4 -1 0 0 0 0 0 0 0 0 0
0 0 0 0 0 0 0 0 0 0 0 0 0 0 0 0 0 0 0 0 0 0 0 0 0 0 0 0 -3 -3 -5 -3 -4 -3 0 0 0 0 0 0 0 0 0
0 0 0 0 0 0 0 0 0 0 0 0 0 0 0 0 0 0 0 0 0 0 0 0 0 0 0 -1 -1 -2 -2 -2 -2 0 0 0 0 0 0 0 0 0 0
Wind_Speed
25 20 16 17 15 14 12 9 8 10 7 5 4 4 6 8 10 12 13 14 15 17 19 21 23 25 27 29 30 29 31 30 36 33 37 31 28 27 32 34 36 36 37
23 19 16 16 15 13 9 4 2 4 6 4 4 4 4 8 9 11 13 14 16 18 20 22 24 26 28 29 30 31 31 31 34 35 34 36 33 27 43 32 39 36 38
22 19 15 12 12 9 6 1 2 3 2 1 1 3 5 7 9 10 12 15 17 19 21 23 25 27 28 30 30 31 32 33 32 33 33 38 39 46 31 42 34 44 40
23 18 15 11 8 8 4 1 3 4 2 1 1 1 2 5 7 8 11 14 18 20 22 24 26 28 28 29 30 30 31 33 35 33 34 32 35 43 50 38 46 39 46
22 18 16 11 7 6 4 3 3 3 2 1 2 2 4 6 8 9 11 15 18 21 23 25 27 28 28 29 30 31 33 33 34 36 36 36 38 36 43 56 49 47 45
22 18 15 11 8 6 4 3 4 2 2 3 3 4 5 6 7 9 12 15 19 22 24 26 27 28 29 30 31 32 34 35 35 36 38 39 40 43 45 52 54 54 50
20 17 15 13 9 7 6 4 4 3 3 3 3 4 5 6 8 10 13 17 20 23 25 26 28 29 30 31 32 34 36 36 38 38 39 38 38 40 44 50 56 56 54
22 19 16 13 10 8 7 5 5 4 3 2 2 4 5 7 10 12 15 18 21 23 24 26 28 30 31 33 34 35 37 37 38 40 39 38 40 41 44 48 53 63 58
21 19 15 13 11 9 8 7 6 4 3 3 2 4 6 9 11 14 17 20 22 23 26 28 30 32 33 35 36 38 39 38 38 39 38 40 42 43 44 44 45 52 67
19 17 14 12 10 9 8 7 6 5 3 2 2 5 7 10 13 15 19 21 23 25 27 30 31 33 35 37 38 39 39 38 39 37 41 42 44 46 45 45 46 47 52
17 15 12 11 10 9 9 7 6 4 2 1 3 5 8 11 14 17 20 22 24 27 29 31 33 35 37 39 39 40 39 40 38 40 41 44 46 47 47 46 46 48 49
14 12 11 10 10 10 9 8 5 4 2 1 4 6 9 12 15 18 21 23 26 28 30 32 35 37 39 40 41 41 39 40 41 42 42 46 48 49 48 47 50 50 50
12 10 10 11 11 10 9 7 5 3 1 2 4 7 10 13 17 20 22 25 27 29 31 34 37 39 40 40 40 38 39 41 41 42 44 47 48 51 50 50 51 50 50
11 9 9 11 11 10 8 7 4 3 1 3 6 9 12 15 19 21 24 26 28 31 34 36 38 39 39 39 38 39 41 42 43 43 43 46 49 51 52 52 51 50 53
11 10 11 10 9 8 7 5 4 2 1 4 7 11 14 17 19 22 25 27 30 32 34 36 38 39 39 38 42 42 43 45 46 45 45 45 47 51 51 51 52 52 51
11 9 9 9 10 9 7 5 3 2 2 6 9 12 15 17 20 23 26 29 32 34 35 37 38 39 39 42 43 45 46 46 48 50 49 47 49 49 50 51 49 47 49
9 8 9 9 8 7 6 5 3 1 4 7 10 13 15 19 22 25 28 30 32 34 37 37 38 40 42 43 45 46 46 47 49 50 51 50 48 49 48 47 47 45 42
5 5 6 5 5 5 4 3 1 1 5 8 10 13 17 20 24 26 28 31 33 35 36 37 39 40 42 44 46 48 45 47 49 48 48 47 49 47 48 47 45 41 41
1 3 4 5 4 4 4 3 1 3 6 8 11 14 18 21 24 27 30 32 33 35 36 37 40 42 44 44 46 47 47 49 49 47 45 46 46 47 47 45 45 42 39
1 3 4 4 4 4 5 3 2 5 7 9 12 16 19 22 25 28 30 31 33 35 37 40 41 43 44 43 45 46 48 50 50 47 44 43 45 45 44 45 41 43 24
4 4 5 5 5 5 4 3 5 7 9 11 14 18 20 23 26 28 30 32 34 37 40 42 42 42 42 42 44 46 47 48 48 47 45 43 43 43 45 37 34 15 29
6 6 6 6 5 5 4 5 7 8 11 13 17 19 22 24 27 29 31 33 36 40 43 45 45 43 41 42 45 46 46 45 45 44 43 39 42 42 35 32 22 30 40
8 8 8 8 7 6 6 7 8 10 13 15 18 20 23 24 27 30 33 37 40 43 45 45 46 46 45 44 44 45 45 45 43 41 39 39 39 36 27 15 16 26 12
9 9 9 8 8 8 8 9 10 12 14 17 19 21 24 26 29 31 34 38 41 43 44 45 47 47 46 45 45 44 44 42 40 39 36 38 35 20 12 21 10 12 14
11 10 10 9 9 9 10 11 12 14 16 18 20 23 25 27 31 33 36 39 38 39 43 44 45 47 48 45 46 45 43 42 41 42 37 34 14 22 20 10 12 14 17
11 10 10 9 9 10 11 13 14 15 17 19 22 24 27 30 33 36 38 35 36 38 38 40 41 42 42 43 43 42 42 42 39 36 31 14 21 11 11 12 19 15 17
Wind_Direction
266 272 280 284 293 296 292 280 263 259 246 253 279 308 332 353 0 5 9 6 4 2 357 355 352 350 347 346 345 343 339 339 336 334 329 332 332 330 330 331 329 331 328
261 267 276 280 285 295 298 293 244 238 244 241 289 314 3 1 13 12 10 8 4 2 359 356 353 351 349 347 345 343 340 339 339 334 332 326 329 328 321 329 327 328 329
253 261 267 275 281 289 291 253 140 145 189 187 65 21 23 16 14 18 13 6 5 1 358 355 353 351 349 346 345 344 342 338 341 341 338 327 322 321 327 324 328 323 324
253 254 255 263 270 276 276 189 142 136 143 140 107 67 19 38 26 30 21 9 3 360 357 355 353 351 350 347 346 346 344 341 337 339 337 336 330 324 318 325 322 325 322
238 239 243 248 257 256 245 189 149 134 131 104 90 64 56 47 43 33 13 6 360 357 354 353 352 351 350 348 346 344 342 342 339 337 335 333 330 328 322 318 322 322 322
239 236 238 237 241 247 227 194 158 147 124 107 90 82 72 59 33 13 3 357 354 353 351 351 351 350 347 345 344 343 342 340 339 337 334 331 329 326 324 320 320 320 322
223 218 215 220 225 223 217 206 173 165 135 108 84 74 57 36 17 4 356 351 348 347 347 348 347 346 345 344 343 341 340 338 336 335 333 332 330 329 326 323 319 318 320
221 216 214 216 213 210 208 192 169 162 143 114 75 47 27 11 2 357 352 349 348 347 347 346 345 344 343 342 341 340 338 337 336 334 334 333 331 330 328 324 321 317 318
210 207 208 206 208 203 200 186 166 156 143 116 69 24 9 2 356 354 352 348 347 346 345 344 343 342 341 340 339 337 336 337 336 335 335 333 332 330 328 326 324 320 316
209 206 201 204 213 204 194 183 169 159 149 109 40 7 1 358 355 352 347 346 345 344 342 341 341 340 339 338 338 337 337 336 336 336 334 333 332 330 329 327 324 321 318
200 196 204 212 207 192 184 181 176 169 155 77 9 1 355 353 351 347 347 345 344 342 341 340 340 338 337 337 337 337 336 336 336 335 334 333 332 331 329 327 325 322 320
195 190 190 190 185 183 182 180 176 174 176 17 359 352 352 349 346 345 344 344 342 341 340 339 338 337 336 337 337 336 337 336 335 334 333 332 332 330 329 328 324 322 320
189 188 184 177 175 175 175 176 179 178 179 349 351 348 345 344 342 342 342 342 341 341 340 338 336 337 337 338 338 338 337 336 335 334 332 331 332 330 329 327 324 323 322
175 181 172 169 170 173 175 176 183 185 229 337 339 339 338 338 339 341 341 341 341 339 338 338 338 339 339 339 339 338 337 336 334 333 332 331 331 329 328 327 325 324 322
162 163 165 167 173 176 180 186 195 208 287 327 332 333 336 338 340 341 341 341 340 339 339 339 339 340 340 341 338 338 337 335 334 334 332 332 331 330 329 328 327 325 323
150 156 164 169 172 176 181 187 191 205 310 325 328 334 336 338 339 339 339 339 339 340 341 340 340 340 341 340 339 338 336 336 335 333 333 332 331 330 329 328 327 327 326
150 155 159 164 170 176 171 174 176 258 322 329 332 334 337 337 338 338 338 339 340 341 340 341 341 340 340 340 339 338 338 337 336 334 333 333 333 332 331 330 329 328 328
149 159 155 157 160 157 157 152 148 340 334 333 335 337 337 337 337 338 340 339 340 341 341 341 341 341 341 341 340 339 339 338 336 336 335 335 335 335 333 332 333 337 333
173 140 142 141 137 141 137 130 65 347 340 338 339 340 340 339 339 339 339 340 341 341 342 342 341 340 341 342 341 340 339 337 337 337 337 337 336 336 336 337 338 337 337
73 107 108 109 111 114 118 99 22 353 343 343 343 342 342 340 339 340 341 342 342 342 341 341 341 342 342 342 342 341 339 338 338 338 339 339 339 339 341 340 341 338 341
79 85 88 93 99 102 94 36 3 348 349 349 346 343 343 342 343 342 343 343 342 341 341 341 343 343 343 343 343 342 341 340 339 340 341 341 342 343 342 346 348 317 294
69 72 75 74 75 68 41 11 1 359 355 350 346 345 345 344 344 344 344 343 342 340 340 340 341 343 344 344 343 343 343 343 342 342 342 344 344 345 350 353 293 296 344
63 64 74 71 56 43 32 19 7 360 353 350 348 347 347 348 347 345 344 342 342 341 340 341 341 342 344 344 344 344 344 345 345 345 345 346 348 351 357 299 343 299 301
61 65 66 59 46 30 21 17 9 2 357 352 350 349 349 348 347 347 346 343 342 342 342 342 342 342 344 345 345 346 347 348 348 348 350 349 352 295 326 4 325 299 297
66 63 60 51 40 32 23 15 8 0 355 354 352 350 349 347 346 346 346 344 346 345 343 343 343 343 343 345 346 347 348 349 349 348 351 356 353 7 7 322 305 300 298
64 55 47 43 37 28 18 8 3 1 358 353 351 349 347 345 345 344 344 349 348 347 347 346 346 345 345 346 348 349 350 350 352 353 359 303 8 350 305 308 299 301 302